Location: Bandys
(35.4750°N, 81.0830°W)
Time: 10:00:46
(UTC-04:00)

Daily predictions for brighter satellites

Satellite Brightness Start Highest point End
(mag) Time Altitude Azimuth Time Altitude Azimuth Time Altitude Azimuth
ATLAS 5 CENTAUR R/B 2.5 20:44:58 10° NNW 20:51:07 86° ENE 20:57:37 10° SSE
Cosmos 2184 Rocket 4.0 20:50:04 10° S 20:56:09 69° E 21:02:18 10° NNE
H-2A R/B 3.9 20:53:52 10° E 20:56:10 14° ENE 20:58:27 10° NNE
Okean 1-7 4.2 20:53:40 10° NNW 20:57:48 47° W 21:01:58 10° SSW
Cosmos 1782 3.4 20:57:13 10° N 21:01:01 38° E 21:04:47 10° SSE
Cosmos 1408 4.2 20:58:51 10° SE 21:01:22 18° E 21:03:52 10° NE
PSLV R/B 3.9 20:58:06 10° WNW 21:01:23 47° SSW 21:04:43 10° SE
Cosmos 2056 Rocket 4.1 21:00:24 10° SSW 21:05:30 62° WNW 21:10:35 10° N
Cosmos 1356 Rocket 4.2 21:04:19 10° SSW 21:08:29 58° W 21:12:43 10° N
Atlas Centaur 2 2.1 21:06:09 10° WSW 21:09:31 31° S 21:12:28 11° SE
CZ-4 DEB 3.1 21:10:04 10° SSE 21:13:06 44° ENE 21:16:09 10° N
Meteor 2-6 Rocket 4.4 21:07:37 10° N 21:13:29 60° E 21:19:09 10° SSE
Meteor 2-10 Rocket 4.0 21:10:21 10° NNW 21:16:08 77° W 21:21:41 10° S
Cosmos 1844 Rocket 3.2 21:11:35 10° SSW 21:17:12 68° WNW 21:22:50 10° NNE
Cosmos 1825 3.0 21:14:49 10° SSE 21:18:11 31° E 21:21:35 10° NNE
Cosmos 1939 Rocket 3.8 21:15:55 12° SE 21:18:59 29° ENE 21:22:24 10° NNE
Cosmos 2278 Rocket 2.3 21:13:50 10° S 21:19:22 58° ESE 21:24:56 10° NNE
GPS 2-05 Rocket1 2.9 21:16:44 10° W 21:20:28 89° S 21:24:06 10° E
COSMOS 2406 3.6 21:15:00 10° NNW 21:20:40 65° WSW 21:26:18 10° S
FENGYUN 3A 4.0 21:15:58 10° S 21:21:19 68° WSW 21:26:41 10° NNW
Cosmos 1674 Rocket 3.5 21:20:22 10° N 21:24:49 80° E 21:29:14 10° S
Cosmos 2074 Rocket 4.5 21:18:45 10° SSW 21:24:59 66° W 21:31:13 10° N
SL-27 R/B 2.9 21:21:27 10° NNW 21:25:02 62° WSW 21:28:32 10° S
Cosmos 1844 3.9 21:19:45 10° SSW 21:25:30 79° WNW 21:31:20 10° NNE
ALOS 3.1 21:21:56 10° S 21:26:28 51° W 21:31:02 10° NNW
Okean 2 Rocket 3.9 21:27:34 12° SSE 21:30:59 31° E 21:34:51 10° NNE
SJ-11-01 4.3 21:28:46 10° SSE 21:33:28 69° ENE 21:38:12 10° N
Envisat 3.4 21:31:59 15° SE 21:35:59 47° ENE 21:40:51 10° N
USA 186 3.5 21:33:49 10° SSW 21:36:40 33° W 21:39:40 10° NNW
SEDSat Delta rocket 3.6 21:32:46 10° SW 21:36:52 34° SSE 21:39:01 21° ESE
OAO 1 Rocket 4.4 21:31:56 10° WSW 21:37:12 67° SSE 21:42:05 12° E
Cosmos 1782 Rocket 3.8 21:34:27 10° SSE 21:38:44 47° E 21:43:02 10° NNE
Cosmos 2082 Rocket 3.7 21:37:46 10° N 21:42:06 22° ENE 21:44:56 16° E
Intercosmos 25 4.1 21:43:01 24° ESE 21:43:44 26° E 21:46:28 10° NE
Sich 1 Rocket 4.2 21:39:44 10° SSW 21:44:15 62° W 21:48:48 10° N
OAO 3 Rocket 3.3 21:39:25 10° WSW 21:44:17 57° SSE 21:48:02 17° E
Nadezhda 3 Rocket 4.0 21:39:33 10° N 21:45:55 71° E 21:51:47 12° SSE
ERS-1 Rocket 3.0 21:42:56 11° SSE 21:47:48 87° WSW 21:52:52 10° NNW
Cosmos 1420 Rocket 3.9 21:42:40 10° S 21:47:52 67° ESE 21:53:03 10° NNE
APEX 3.4 21:44:53 10° S 21:48:30 60° ESE 21:53:15 10° NNE
COSMOS 2487 2.5 21:49:36 10° N 21:53:12 65° ENE 21:54:41 32° SE
DNEPR-1 R/B 4.4 21:48:32 10° NNW 21:53:28 41° NE 21:55:33 26° ESE
Cosmos 1975 Rocket 3.2 21:52:19 10° N 21:56:33 53° E 21:58:28 29° SE
Cosmos 2297 3.7 21:51:16 10° S 21:56:50 60° ESE 22:02:29 10° NNE
Cosmos 407 Rocket 4.3 21:52:02 10° NNW 21:57:09 52° WSW 22:02:12 11° S
Cosmos 1140 Rocket 3.6 21:52:28 10° N 21:57:32 55° ENE 22:00:06 28° SE
Terra 4.0 22:01:18 10° ENE 22:01:53 10° ENE 22:02:29 10° NE
EO 1 Delta rocket 4.1 21:58:28 10° N 22:04:12 83° W 22:08:58 10° SSW
ISS -0.2 22:03:37 10° WNW 22:05:45 16° NNW 22:07:52 10° NNE
Cosmos 1378 Rocket 3.7 22:01:34 10° NNW 22:05:53 71° W 22:08:46 20° S
MetOp-B 4.3 22:04:33 29° SE 22:07:07 54° ENE 22:12:20 10° N
CZ-4B R/B 3.9 22:03:47 10° NNE 22:08:20 38° E 22:09:18 34° SE
Cosmos 1606 3.8 22:05:23 10° NNW 22:09:09 44° W 22:12:07 15° SSW
NOSS 8 (F) 4.4 22:11:48 55° SE 22:11:53 55° ESE 22:15:21 10° NE
Cosmos 2341 Rocket 4.2 22:05:39 10° SSW 22:11:56 74° W 22:18:13 10° N
H-2A R/B 3.7 22:11:12 18° E 22:12:15 19° ENE 22:15:51 10° NNE
Cosmos 1238 Rocket 3.1 22:11:30 10° NNW 22:14:59 62° W 22:17:07 26° SSW
Cosmos 1184 Rocket 4.2 22:13:02 10° SSW 22:16:10 38° W 22:19:20 10° N
SPOT 5 3.0 22:14:02 29° SSE 22:16:49 84° ENE 22:22:12 10° N
SL-8 Rocket 3.9 22:13:59 19° S 22:18:39 73° E 22:24:52 10° N
Abrixas 3.0 22:21:34 10° WSW 22:24:34 57° NW 22:24:57 51° N
USA 245 3.5 22:25:48 47° ENE 22:25:48 47° ENE 22:29:31 10° N
SPOT 1/Viking Rocket 3.7 22:26:12 43° SE 22:27:37 58° ENE 22:32:44 10° N
Lacrosse 5 3.5 22:31:52 20° ENE 22:31:52 20° ENE 22:33:37 10° ENE
ARGOS 3.4 22:27:49 42° ESE 22:29:09 52° ENE 22:34:21 10° N
Cosmos 1242 Rocket 2.8 22:27:14 10° NNW 22:30:53 67° W 22:31:23 58° SW
Elektron 3 4.3 22:28:22 10° NNW 22:31:27 77° NE 22:31:54 66° ESE
Timation 2 Rocket 3.8 22:25:48 10° NNW 22:31:48 87° WSW 22:34:08 40° SSE
H-2A R/B 3.0 22:29:41 24° SSW 22:31:49 42° W 22:35:50 10° NNW
YAOGAN 6 2.4 22:33:24 83° NW 22:33:24 83° NW 22:36:50 10° NNW
Cosmos 2151 Rocket 3.5 22:36:40 62° SSE 22:37:21 79° E 22:41:54 10° N
Cosmos 1850 Rocket 4.1 22:38:00 10° NNW 22:43:19 73° WSW 22:44:48 47° S
USA 229 DEB 3.9 22:40:56 10° NNW 22:48:01 66° ENE 22:50:15 45° ESE
USA 229 3.9 22:41:02 10° NNW 22:48:07 65° NE 22:50:21 45° ESE
Cosmos 864 Rocket 4.3 22:45:50 40° S 22:48:14 84° E 22:54:25 10° N
Meteor 1-20 Rocket 4.1 22:50:14 60° SE 22:50:50 64° E 22:56:18 10° NNE
Timation 1 Rocket 4.2 22:48:55 29° SSW 22:52:08 86° ESE 22:58:09 10° NNE
Okean 1 Rocket 4.4 22:56:17 29° NE 22:56:17 29° NE 22:58:52 10° NNE
Cosmos 2366 rocket 4.1 22:57:17 33° SSW 23:00:17 73° W 23:06:38 10° N
Cosmos 1833 Rocket 2.5 22:55:05 10° NNW 23:00:43 79° ENE 23:01:16 71° SE
Cosmos 1331 Rocket 3.8 23:05:38 83° SSW 23:05:51 89° WNW 23:11:01 10° NNE
Meteor 1-25 Rocket 4.4 23:06:56 48° SSW 23:08:35 74° W 23:14:25 10° N
CZ-4 R/B 4.1 23:06:22 10° N 23:10:57 61° WNW 23:11:24 57° WSW
Cosmos 1110 Rocket 4.3 23:13:25 51° WSW 23:14:30 64° WNW 23:19:41 10° N
SL-08 RB Rocket 4.4 23:21:37 50° W 23:21:37 50° W 23:25:50 10° NNW
DMSP B5D2-2 4.2 23:16:04 10° NNE 23:20:37 67° NE 23:20:37 67° NE
Landsat 7 4.1 23:23:53 64° NW 23:23:53 64° NW 23:28:01 10° NNW
Cosmos 2082 Rocket 2.7 23:20:59 10° NNW 23:26:25 47° WSW 23:26:48 47° WSW
OAO 3 Rocket 4.3 23:22:49 10° W 23:25:52 38° W 23:25:52 38° W
Cosmos 1812 4.4 23:25:02 10° NNW 23:27:15 32° NNW 23:27:15 32° NNW
NOSS 3-1 (C) 4.3 23:27:58 10° NNW 23:35:29 55° NE 23:37:00 49° E
Terra 2.5 23:40:06 51° NNW 23:40:06 51° NNW 23:43:43 10° NNW
BREEZE-M TANK 4.3 23:34:25 10° WNW 23:41:25 31° N 23:42:07 29° NNE
USA 234 3.1 23:36:45 10° NE 23:43:19 88° SE 23:43:56 75° SW
Cosmos 1486 Rocket 4.5 23:40:25 10° NNW 23:44:40 58° NNW 23:44:40 58° NNW
Meteor 1-13 Rocket 4.4 23:44:04 10° N 23:49:25 73° NNW 23:49:25 73° NNW
H-2A R/B 2.8 23:51:51 48° WNW 23:51:51 48° WNW 23:56:25 10° NNW
Lacrosse 5 rocket 3.9 23:57:31 16° N 23:57:31 16° N 23:58:45 10° N
